Flag for United Kingdom Weather past 2 weeks in Bath, England, United Kingdom

Now
41 °F

Passing clouds.


Feels Like: 35 °F
Forecast: 37 / 53 °F
Wind: 10 mph from South

Location: Bristol / Lulsgate

Current Time: Mar 6, 2015 at 8:41:36 AM

Latest Report: Mar 6, 2015 at 8:20 AM


Visibility: N/A

Pressure: 30.57 "Hg

Humidity: 87%

Dew point: 37 °F

Location of BathLocation

Historic Weather in Bath — Graph

°F

Bath temperature yesterday

Maximum temperature yesterday: 48 °F (at 12:20 PM)
Minimum temperature yesterday: 36 °F (at 12:20 AM)
Average temperature yesterday: 43 °F

Past Weeks' High & Low Weather Summary

 TemperatureHumidityPressure
High52 °F (Feb 25, 1:20 PM)100% (Feb 19, 11:20 AM)30.69 "Hg (Feb 19, 11:20 AM)
Low32 °F (Feb 22, 1:20 AM)50% (Mar 4, 2:20 PM)29.24 "Hg (Feb 23, 12:50 PM)
Average41 °F85%29.88 "Hg
* Reported Feb 19 7:20 AM — Mar 6 7:20 AM, Bath, Weather by CustomWeather, © 2015

Note: Actual official high and low records may vary slightly from our data, if they occured in-between our weather recording intervals... More about our weather records

Advertising

Bath weather history for previous 24 hours

 ConditionsComfort  
Time TempWeatherWind HumidityBarometerVisibility
7:20 AM
Fri, Mar 6
39 °FPartly sunny.5 mph87%30.57 "HgN/A
6:50 AM39 °FPartly sunny.8 mph87%30.57 "HgN/A
6:20 AM39 °FPassing clouds.7 mph87%30.54 "HgN/A
5:50 AM39 °FPassing clouds.7 mph81%30.54 "HgN/A
5:20 AM39 °FPassing clouds.6 mph81%30.54 "HgN/A
4:50 AM41 °FPassing clouds.9 mph76%30.57 "HgN/A
4:20 AM43 °FPassing clouds.8 mph76%30.57 "HgN/A
3:50 AM43 °FPassing clouds.8 mph76%30.57 "HgN/A
3:20 AM43 °FPassing clouds.10 mph76%30.57 "HgN/A
2:50 AM43 °FPassing clouds.10 mph76%30.57 "HgN/A
2:20 AM43 °FPassing clouds.8 mph76%30.60 "HgN/A
1:50 AM43 °FPassing clouds.8 mph76%30.60 "HgN/A
1:20 AM43 °FPassing clouds.8 mph76%30.60 "HgN/A
12:50 AM43 °FPassing clouds.9 mph76%30.60 "HgN/A
12:20 AM43 °FPassing clouds.9 mph76%30.63 "HgN/A
11:50 PM
Thu, Mar 5
43 °FPassing clouds.8 mph81%30.63 "HgN/A
11:20 PM43 °FPassing clouds.8 mph81%30.63 "HgN/A
10:50 PM43 °FPassing clouds.8 mph81%30.63 "HgN/A
10:20 PM43 °FPassing clouds.9 mph81%30.63 "HgN/A
9:50 PM43 °FPassing clouds.10 mph76%30.63 "HgN/A
9:20 PM45 °FPassing clouds.12 mph71%30.63 "HgN/A
8:50 PM45 °FPassing clouds.13 mph71%30.63 "HgN/A
8:20 PM45 °FPassing clouds.10 mph76%30.63 "HgN/A
7:50 PM45 °FPassing clouds.13 mph71%30.63 "HgN/A
7:20 PM45 °FPassing clouds.10 mph71%30.63 "HgN/A
6:50 PM45 °FPassing clouds.13 mph71%30.63 "HgN/A
6:20 PM45 °FPassing clouds.12 mph81%30.63 "HgN/A
5:50 PM45 °FPartly sunny.10 mph81%30.63 "HgN/A
5:20 PM45 °FPartly sunny.12 mph81%30.63 "HgN/A
4:50 PM45 °FScattered showers. Broken clouds.13 mph81%30.63 "HgN/A
4:20 PM45 °FBroken clouds.15 mph81%30.63 "HgN/A
3:50 PM45 °FScattered showers. Partly sunny.17 mph81%30.63 "HgN/A
3:20 PM45 °FScattered showers. Broken clouds.17 mph87%30.66 "HgN/A
2:50 PM46 °FScattered showers. Partly sunny.17 mph71%30.66 "HgN/A
2:20 PM48 °FScattered clouds.20 mph66%30.66 "HgN/A
1:50 PM48 °FPartly sunny.15 mph62%30.66 "HgN/A
1:20 PM48 °FPartly sunny.18 mph62%30.66 "HgN/A
12:50 PM48 °FScattered clouds.17 mph62%30.69 "HgN/A
12:20 PM48 °FScattered clouds.16 mph71%30.69 "HgN/A
11:50 AM46 °FScattered clouds.13 mph76%30.69 "HgN/A
11:20 AM46 °FScattered clouds.13 mph76%30.69 "HgN/A
10:50 AM46 °FPassing clouds.14 mph76%30.69 "HgN/A
10:20 AM45 °FPassing clouds.10 mph81%30.69 "HgN/A
9:50 AM45 °FPassing clouds.8 mph81%30.69 "HgN/A
9:20 AM43 °FPassing clouds.7 mph81%30.69 "HgN/A
8:50 AM41 °FPassing clouds.6 mph87%30.69 "HgN/A
8:20 AM41 °FScattered clouds.5 mph87%30.69 "HgN/A
Weather by CustomWeather, © 2015

See weather overviewHow to use our weather pages